Marshalltown Municipal Airport
Monday 11:53 PM
Temperature75° (85°/64°)
Dew Point64°
Relative Humidity69
%
Visibility10
mi
Pressure1012.5
mb
Wind DirectionSSW
210°
Wind Speed15
mph
(G24)
Precipitation TodayTrace

Last 30 Observations

Time PresWx Temp DP Feels RH% Vsby Pressure Ceiling Direction Speed 1h Precip
11:53 PM 75° 64° 69
%
10
mi
1012.5
mb
SSW
210°
15
mph
0.00"
10:53 PM 76° 64° 67
%
10
mi
1012.5
mb
SSW
210°
15
mph
0.00"
9:53 PM 78° 64° 62
%
10
mi
1012.2
mb
SSW
210°
16
mph
0.00"
8:53 PM 79° 64° 60
%
10
mi
1012.2
mb
SSW
200°
16
mph
0.00"
7:53 PM 81° 63° 54
%
10
mi
1012.2
mb
SSW
210°
11
mph
0.00"
6:53 PM 83° 61° 48
%
10
mi
1011.5
mb
SSW
210°
22
mph
(G33)
0.00"
5:53 PM 85° 61° 45
%
10
mi
1011.9
mb
SW
220°
22
mph
(G31)
0.00"
4:53 PM 85° 61° 45
%
10
mi
1011.5
mb
SSW
210°
24
mph
(G38)
0.00"
3:53 PM 84° 61° 46
%
10
mi
1011.9
mb
SSW
200°
23
mph
(G40)
0.00"
2:53 PM 82° 63° 53
%
10
mi
1012.5
mb
SSW
200°
24
mph
(G41)
0.00"
1:53 PM 81° 60° 49
%
10
mi
1013.6
mb
0.00"
12:53 PM 80° 61° 52
%
10
mi
1014.6
mb
SSW
200°
25
mph
(G40)
0.00"
11:53 AM 76° 62° 62
%
10
mi
1015.9
mb
S
180°
22
mph
(G33)
0.00"
10:53 AM 71° 60° 68
%
10
mi
1016.6
mb
S
170°
22
mph
(G30)
0.00"
9:53 AM 66° 57° 73
%
10
mi
1018.3
mb
SSE
160°
14
mph
0.00"
8:53 AM -RA 65° 56° 73
%
10
mi
1019.0
mb
10,000
ft
SSE
150°
11
mph
0.00"
7:53 AM 65° 53° 65
%
10
mi
1018.6
mb
12,000
ft
SSE
160°
14
mph
0.00"
6:53 AM 65° 52° 63
%
10
mi
1018.3
mb
SSE
160°
14
mph
0.00"
5:53 AM 65° 50° 58
%
10
mi
1018.6
mb
SSE
160°
13
mph
0.00"
4:53 AM 64° 50° 60
%
10
mi
1019.0
mb
11,000
ft
SSE
160°
10
mph
0.00"
3:53 AM 64° 50° 60
%
10
mi
1019.3
mb
11,000
ft
SSE
150°
8
mph
0.00"
2:53 AM 65° 49° 56
%
10
mi
1020.3
mb
12,000
ft
SSE
150°
10
mph
0.00"
1:53 AM 64° 50° 60
%
10
mi
1020.3
mb
12,000
ft
SSE
160°
11
mph
0.00"
12:53 AM 64° 50° 60
%
10
mi
1020.7
mb
SSE
150°
13
mph
0.00"
11:53 PM 64° 50° 60
%
10
mi
1021.3
mb
SSE
150°
8
mph
0.00"
10:53 PM 66° 50° 56
%
10
mi
1021.0
mb
SE
140°
10
mph
0.00"
9:53 PM 67° 50° 55
%
10
mi
1020.7
mb
SSE
150°
10
mph
0.00"
8:53 PM 69° 49° 49
%
10
mi
1020.7
mb
SE
140°
10
mph
0.00"
7:53 PM 72° 49° 44
%
10
mi
1021.0
mb
SSE
150°
11
mph
0.00"
6:53 PM 73° 48° 41
%
10
mi
1021.0
mb
8,500
ft
SSE
150°
11
mph
0.00"